Year,Month,Day,Hour,Minute,Value (Times are PST for temperature in C)
2008,12,16,00,00,-2.30
2008,12,16,00,01,-2.30
2008,12,16,00,02,-2.30
2008,12,16,00,03,-2.30
2008,12,16,00,04,-2.30
2008,12,16,00,05,-2.30
2008,12,16,00,06,-2.30
2008,12,16,00,07,-2.30
2008,12,16,00,08,-2.40
2008,12,16,00,09,-2.40
2008,12,16,00,10,-2.40
2008,12,16,00,11,-2.40
2008,12,16,00,12,-2.50
2008,12,16,00,13,-2.50
2008,12,16,00,14,-2.50
2008,12,16,00,15,-2.50
2008,12,16,00,16,-2.50
2008,12,16,00,17,-2.50
2008,12,16,00,18,-2.50
2008,12,16,00,19,-2.50
2008,12,16,00,20,-2.50
2008,12,16,00,21,-2.50
2008,12,16,00,22,-2.50
2008,12,16,00,23,-2.50
2008,12,16,00,24,-2.50
2008,12,16,00,25,-2.50
2008,12,16,00,26,-2.50
2008,12,16,00,27,-2.50
2008,12,16,00,28,-2.50
2008,12,16,00,29,-2.50
2008,12,16,00,30,-2.50
2008,12,16,00,31,-2.40
2008,12,16,00,32,-2.50
2008,12,16,00,33,-2.50
2008,12,16,00,34,-2.50
2008,12,16,00,35,-2.40
2008,12,16,00,36,-2.40
2008,12,16,00,37,-2.40
2008,12,16,00,38,-2.40
2008,12,16,00,39,-2.40
2008,12,16,00,40,-2.50
2008,12,16,00,41,-2.40
2008,12,16,00,42,-2.40
2008,12,16,00,43,-2.40
2008,12,16,00,44,-2.40
2008,12,16,00,45,-2.40
2008,12,16,00,46,-2.40
2008,12,16,00,47,-2.40
2008,12,16,00,48,-2.40
2008,12,16,00,49,-2.50
2008,12,16,00,50,-2.50
2008,12,16,00,51,-2.50
2008,12,16,00,52,-2.50
2008,12,16,00,53,-2.50
2008,12,16,00,54,-2.50
2008,12,16,00,55,-2.50
2008,12,16,00,56,-2.50
2008,12,16,00,57,-2.50
2008,12,16,00,58,-2.50
2008,12,16,00,59,-2.50
2008,12,16,01,00,-2.50
2008,12,16,01,01,-2.40
2008,12,16,01,02,-2.50
2008,12,16,01,03,-2.40
2008,12,16,01,04,-2.50
2008,12,16,01,05,-2.50
2008,12,16,01,06,-2.50
2008,12,16,01,07,-2.60
2008,12,16,01,08,-2.60
2008,12,16,01,09,-2.70
2008,12,16,01,10,-2.70
2008,12,16,01,11,-2.70
2008,12,16,01,12,-2.70
2008,12,16,01,13,-2.80
2008,12,16,01,14,-2.80
2008,12,16,01,15,-2.80
2008,12,16,01,16,-2.90
2008,12,16,01,17,-2.90
2008,12,16,01,18,-3.00
2008,12,16,01,19,-3.10
2008,12,16,01,20,-3.10
2008,12,16,01,21,-3.20
2008,12,16,01,22,-3.20
2008,12,16,01,23,-3.30
2008,12,16,01,24,-3.30
2008,12,16,01,25,-3.40
2008,12,16,01,26,-3.40
2008,12,16,01,27,-3.50
2008,12,16,01,28,-3.50
2008,12,16,01,29,-3.50
2008,12,16,01,30,-3.60
2008,12,16,01,31,-3.60
2008,12,16,01,32,-3.70
2008,12,16,01,33,-3.70
2008,12,16,01,34,-3.80
2008,12,16,01,35,-3.80
2008,12,16,01,36,-3.90
2008,12,16,01,37,-3.90
2008,12,16,01,38,-4.00
2008,12,16,01,39,-4.00
2008,12,16,01,40,-4.10
2008,12,16,01,41,-4.10
2008,12,16,01,42,-4.10
2008,12,16,01,43,-4.10
2008,12,16,01,44,-4.20
2008,12,16,01,45,-4.20
2008,12,16,01,46,-4.30
2008,12,16,01,47,-4.40
2008,12,16,01,48,-4.50
2008,12,16,01,49,-4.50
2008,12,16,01,50,-4.60
2008,12,16,01,51,-4.70
2008,12,16,01,52,-4.70
2008,12,16,01,53,-4.70
2008,12,16,01,54,-4.80
2008,12,16,01,55,-4.90
2008,12,16,01,56,-4.90
2008,12,16,01,57,-5.00
2008,12,16,01,58,-5.00
2008,12,16,01,59,-4.90
2008,12,16,02,00,-4.90
2008,12,16,02,01,-4.90
2008,12,16,02,02,-4.90
2008,12,16,02,03,-4.80
2008,12,16,02,04,-4.80
2008,12,16,02,05,-4.70
2008,12,16,02,06,-4.70
2008,12,16,02,07,-4.70
2008,12,16,02,08,-4.70
2008,12,16,02,09,-4.70
2008,12,16,02,10,-4.70
2008,12,16,02,11,-4.70
2008,12,16,02,12,-4.70
2008,12,16,02,13,-4.70
2008,12,16,02,14,-4.70
2008,12,16,02,15,-4.70
2008,12,16,02,16,-4.70
2008,12,16,02,17,-4.70
2008,12,16,02,18,-4.60
2008,12,16,02,19,-4.60
2008,12,16,02,20,-4.60
2008,12,16,02,21,-4.60
2008,12,16,02,22,-4.60
2008,12,16,02,23,-4.60
2008,12,16,02,24,-4.50
2008,12,16,02,25,-4.50
2008,12,16,02,26,-4.50
2008,12,16,02,27,-4.60
2008,12,16,02,28,-4.60
2008,12,16,02,29,-4.60
2008,12,16,02,30,-4.60
2008,12,16,02,31,-4.70
2008,12,16,02,32,-4.70
2008,12,16,02,33,-4.70
2008,12,16,02,34,-4.70
2008,12,16,02,35,-4.70
2008,12,16,02,36,-4.70
2008,12,16,02,37,-4.70
2008,12,16,02,38,-4.70
2008,12,16,02,39,-4.80
2008,12,16,02,40,-4.80
2008,12,16,02,41,-4.80
2008,12,16,02,42,-4.90
2008,12,16,02,43,-4.90
2008,12,16,02,44,-5.00
2008,12,16,02,45,-5.00
2008,12,16,02,46,-5.10
2008,12,16,02,47,-5.20
2008,12,16,02,48,-5.30
2008,12,16,02,49,-5.40
2008,12,16,02,50,-5.50
2008,12,16,02,51,-5.60
2008,12,16,02,52,-5.60
2008,12,16,02,53,-5.70
2008,12,16,02,54,-5.80
2008,12,16,02,55,-5.80
2008,12,16,02,56,-5.90
2008,12,16,02,57,-5.90
2008,12,16,02,58,-5.90
2008,12,16,02,59,-5.90
2008,12,16,03,00,-5.90
2008,12,16,03,01,-5.90
2008,12,16,03,02,-5.90
2008,12,16,03,03,-5.90
2008,12,16,03,04,-5.80
2008,12,16,03,05,-5.80
2008,12,16,03,06,-5.70
2008,12,16,03,07,-5.70
2008,12,16,03,08,-5.70
2008,12,16,03,09,-5.70
2008,12,16,03,10,-5.70
2008,12,16,03,11,-5.80
2008,12,16,03,12,-5.90
2008,12,16,03,13,-5.90
2008,12,16,03,14,-6.00
2008,12,16,03,15,-6.10
2008,12,16,03,16,-6.10
2008,12,16,03,17,-6.20
2008,12,16,03,18,-6.30
2008,12,16,03,19,-6.30
2008,12,16,03,20,-6.40
2008,12,16,03,21,-6.40
2008,12,16,03,22,-6.50
2008,12,16,03,23,-6.60
2008,12,16,03,24,-6.70
2008,12,16,03,25,-6.70
2008,12,16,03,26,-6.80
2008,12,16,03,27,-6.80
2008,12,16,03,28,-6.80
2008,12,16,03,29,-6.80
2008,12,16,03,30,-6.80
2008,12,16,03,31,-6.80
2008,12,16,03,32,-6.80
2008,12,16,03,33,-6.80
2008,12,16,03,34,-6.70
2008,12,16,03,35,-6.70
2008,12,16,03,36,-6.70
2008,12,16,03,37,-6.70
2008,12,16,03,38,-6.70
2008,12,16,03,39,-6.70
2008,12,16,03,40,-6.80
2008,12,16,03,41,-6.80
2008,12,16,03,42,-6.80
2008,12,16,03,43,-6.90
2008,12,16,03,44,-6.90
2008,12,16,03,45,-6.90
2008,12,16,03,46,-7.00
2008,12,16,03,47,-7.00
2008,12,16,03,48,-7.00
2008,12,16,03,49,-7.10
2008,12,16,03,50,-7.10
2008,12,16,03,51,-7.20
2008,12,16,03,52,-7.20
2008,12,16,03,53,-7.20
2008,12,16,03,54,-7.20
2008,12,16,03,55,-7.20
2008,12,16,03,56,-7.20
2008,12,16,03,57,-7.10
2008,12,16,03,58,-7.10
2008,12,16,03,59,-7.10
2008,12,16,04,00,-7.10
2008,12,16,04,01,-7.10
2008,12,16,04,02,-7.10
2008,12,16,04,03,-7.10
2008,12,16,04,04,-7.10
2008,12,16,04,05,-7.10
2008,12,16,04,06,-7.20
2008,12,16,04,07,-7.20
2008,12,16,04,08,-7.20
2008,12,16,04,09,-7.30
2008,12,16,04,10,-7.30
2008,12,16,04,11,-7.30
2008,12,16,04,12,-7.40
2008,12,16,04,13,-7.50
2008,12,16,04,14,-7.60
2008,12,16,04,15,-7.60
2008,12,16,04,16,-7.60
2008,12,16,04,17,-7.70
2008,12,16,04,18,-7.70
2008,12,16,04,19,-7.80
2008,12,16,04,20,-7.80
2008,12,16,04,21,-7.90
2008,12,16,04,22,-7.90
2008,12,16,04,23,-7.90
2008,12,16,04,24,-8.00
2008,12,16,04,25,-8.10
2008,12,16,04,26,-8.10
2008,12,16,04,27,-8.20
2008,12,16,04,28,-8.20
2008,12,16,04,29,-8.20
2008,12,16,04,30,-8.20
2008,12,16,04,31,-8.20
2008,12,16,04,32,-8.20
2008,12,16,04,33,-8.30
2008,12,16,04,34,-8.30
2008,12,16,04,35,-8.30
2008,12,16,04,36,-8.40
2008,12,16,04,37,-8.40
2008,12,16,04,38,-8.40
2008,12,16,04,39,-8.50
2008,12,16,04,40,-8.50
2008,12,16,04,41,-8.50
2008,12,16,04,42,-8.50
2008,12,16,04,43,-8.40
2008,12,16,04,44,-8.40
2008,12,16,04,45,-8.40
2008,12,16,04,46,-8.40
2008,12,16,04,47,-8.40
2008,12,16,04,48,-8.30
2008,12,16,04,49,-8.30
2008,12,16,04,50,-8.30
2008,12,16,04,51,-8.20
2008,12,16,04,52,-8.20
2008,12,16,04,53,-8.20
2008,12,16,04,54,-8.20
2008,12,16,04,55,-8.20
2008,12,16,04,56,-8.20
2008,12,16,04,57,-8.20
2008,12,16,04,58,-8.20
2008,12,16,04,59,-8.20
2008,12,16,05,00,-8.20
2008,12,16,05,01,-8.20
2008,12,16,05,02,-8.20
2008,12,16,05,03,-8.20
2008,12,16,05,04,-8.20
2008,12,16,05,05,-8.20
2008,12,16,05,06,-8.30
2008,12,16,05,07,-8.30
2008,12,16,05,08,-8.40
2008,12,16,05,09,-8.40
2008,12,16,05,10,-8.40
2008,12,16,05,11,-8.50
2008,12,16,05,12,-8.60
2008,12,16,05,13,-8.60
2008,12,16,05,14,-8.60
2008,12,16,05,15,-8.60
2008,12,16,05,16,-8.60
2008,12,16,05,17,-8.60
2008,12,16,05,18,-8.60
2008,12,16,05,19,-8.50
2008,12,16,05,20,-8.50
2008,12,16,05,21,-8.50
2008,12,16,05,22,-8.50
2008,12,16,05,23,-8.50
2008,12,16,05,24,-8.50
2008,12,16,05,25,-8.50
2008,12,16,05,26,-8.60
2008,12,16,05,27,-8.60
2008,12,16,05,28,-8.60
2008,12,16,05,29,-8.70
2008,12,16,05,30,-8.80
2008,12,16,05,31,-8.80
2008,12,16,05,32,-8.80
2008,12,16,05,33,-8.80
2008,12,16,05,34,-8.90
2008,12,16,05,35,-8.90
2008,12,16,05,36,-9.00
2008,12,16,05,37,-9.10
2008,12,16,05,38,-9.10
2008,12,16,05,39,-9.10
2008,12,16,05,40,-9.10
2008,12,16,05,41,-9.10
2008,12,16,05,42,-9.20
2008,12,16,05,43,-9.20
2008,12,16,05,44,-9.20
2008,12,16,05,45,-9.20
2008,12,16,05,46,-9.20
2008,12,16,05,47,-9.20
2008,12,16,05,48,-9.20
2008,12,16,05,49,-9.20
2008,12,16,05,50,-9.20
2008,12,16,05,51,-9.20
2008,12,16,05,52,-9.30
2008,12,16,05,53,-9.30
2008,12,16,05,54,-9.30
2008,12,16,05,55,-9.40
2008,12,16,05,56,-9.40
2008,12,16,05,57,-9.40
2008,12,16,05,58,-9.40
2008,12,16,05,59,-9.40
2008,12,16,06,00,-9.40
2008,12,16,06,01,-9.40
2008,12,16,06,02,-9.40
2008,12,16,06,03,-9.40
2008,12,16,06,04,-9.50
2008,12,16,06,05,-9.50
2008,12,16,06,06,-9.50
2008,12,16,06,07,-9.50
2008,12,16,06,08,-9.50
2008,12,16,06,09,-9.50
2008,12,16,06,10,-9.50
2008,12,16,06,11,-9.50
2008,12,16,06,12,-9.50
2008,12,16,06,13,-9.50
2008,12,16,06,14,-9.50
2008,12,16,06,15,-9.50
2008,12,16,06,16,-9.50
2008,12,16,06,17,-9.40
2008,12,16,06,18,-9.40
2008,12,16,06,19,-9.40
2008,12,16,06,20,-9.40
2008,12,16,06,21,-9.40
2008,12,16,06,22,-9.40
2008,12,16,06,23,-9.40
2008,12,16,06,24,-9.50
2008,12,16,06,25,-9.50
2008,12,16,06,26,-9.50
2008,12,16,06,27,-9.50
2008,12,16,06,28,-9.40
2008,12,16,06,29,-9.40
2008,12,16,06,30,-9.30
2008,12,16,06,31,-9.20
2008,12,16,06,32,-9.10
2008,12,16,06,33,-9.10
2008,12,16,06,34,-9.10
2008,12,16,06,35,-9.10
2008,12,16,06,36,-9.20
2008,12,16,06,37,-9.30
2008,12,16,06,38,-9.30
2008,12,16,06,39,-9.30
2008,12,16,06,40,-9.30
2008,12,16,06,41,-9.30
2008,12,16,06,42,-9.40
2008,12,16,06,43,-9.40
2008,12,16,06,44,-9.40
2008,12,16,06,45,-9.40
2008,12,16,06,46,-9.50
2008,12,16,06,47,-9.50
2008,12,16,06,48,-9.50
2008,12,16,06,49,-9.50
2008,12,16,06,50,-9.50
2008,12,16,06,51,-9.50
2008,12,16,06,52,-9.50
2008,12,16,06,53,-9.50
2008,12,16,06,54,-9.60
2008,12,16,06,55,-9.60
2008,12,16,06,56,-9.60
2008,12,16,06,57,-9.60
2008,12,16,06,58,-9.60
2008,12,16,06,59,-9.50
2008,12,16,07,00,-9.50
2008,12,16,07,01,-9.50
2008,12,16,07,02,-9.50
2008,12,16,07,03,-9.50
2008,12,16,07,04,-9.50
2008,12,16,07,05,-9.50
2008,12,16,07,06,-9.50
2008,12,16,07,07,-9.50
2008,12,16,07,08,-9.50
2008,12,16,07,09,-9.60
2008,12,16,07,10,-9.60
2008,12,16,07,11,-9.60
2008,12,16,07,12,-9.60
2008,12,16,07,13,-9.70
2008,12,16,07,14,-9.70
2008,12,16,07,15,-9.70
2008,12,16,07,16,-9.70
2008,12,16,07,17,-9.70
2008,12,16,07,18,-9.70
2008,12,16,07,19,-9.70
2008,12,16,07,20,-9.70
2008,12,16,07,21,-9.70
2008,12,16,07,22,-9.70
2008,12,16,07,23,-9.70
2008,12,16,07,24,-9.70
2008,12,16,07,25,-9.70
2008,12,16,07,26,-9.70
2008,12,16,07,27,-9.70
2008,12,16,07,28,-9.70
2008,12,16,07,29,-9.70
2008,12,16,07,30,-9.70
2008,12,16,07,31,-9.60
2008,12,16,07,32,-9.60
2008,12,16,07,33,-9.60
2008,12,16,07,34,-9.70
2008,12,16,07,35,-9.70
2008,12,16,07,36,-9.70
2008,12,16,07,37,-9.60
2008,12,16,07,38,-9.50
2008,12,16,07,39,-9.50
2008,12,16,07,40,-9.40
2008,12,16,07,41,-9.40
2008,12,16,07,42,-9.30
2008,12,16,07,43,-9.30
2008,12,16,07,44,-9.30
2008,12,16,07,45,-9.30
2008,12,16,07,46,-9.30
2008,12,16,07,47,-9.30
2008,12,16,07,48,-9.30
2008,12,16,07,49,-9.30
2008,12,16,07,50,-9.30
2008,12,16,07,51,-9.40
2008,12,16,07,52,-9.40
2008,12,16,07,53,-9.50
2008,12,16,07,54,-9.60
2008,12,16,07,55,-9.60
2008,12,16,07,56,-9.60
2008,12,16,07,57,-9.70
2008,12,16,07,58,-9.70
2008,12,16,07,59,-9.70
2008,12,16,08,00,-9.70
2008,12,16,08,01,-9.80
2008,12,16,08,02,-9.80
2008,12,16,08,03,-9.80
2008,12,16,08,04,-9.80
2008,12,16,08,05,-9.80
2008,12,16,08,06,-9.80
2008,12,16,08,07,-9.80
2008,12,16,08,08,-9.80
2008,12,16,08,09,-9.80
2008,12,16,08,10,-9.80
2008,12,16,08,11,-9.80
2008,12,16,08,12,-9.80
2008,12,16,08,13,-9.80
2008,12,16,08,14,-9.80
2008,12,16,08,15,-9.70
2008,12,16,08,16,-9.70
2008,12,16,08,17,-9.60
2008,12,16,08,18,-9.60
2008,12,16,08,19,-9.60
2008,12,16,08,20,-9.60
2008,12,16,08,21,-9.50
2008,12,16,08,22,-9.50
2008,12,16,08,23,-9.50
2008,12,16,08,24,-9.50
2008,12,16,08,25,-9.50
2008,12,16,08,26,-9.50
2008,12,16,08,27,-9.50
2008,12,16,08,28,-9.50
2008,12,16,08,29,-9.50
2008,12,16,08,30,-9.50
2008,12,16,08,31,-9.50
2008,12,16,08,32,-9.60
2008,12,16,08,33,-9.60
2008,12,16,08,34,-9.60
2008,12,16,08,35,-9.60
2008,12,16,08,36,-9.50
2008,12,16,08,37,-9.50
2008,12,16,08,38,-9.40
2008,12,16,08,39,-9.30
2008,12,16,08,40,-9.20
2008,12,16,08,41,-9.10
2008,12,16,08,42,-9.00
2008,12,16,08,43,-8.90
2008,12,16,08,44,-8.80
2008,12,16,08,45,-8.80
2008,12,16,08,46,-8.70
2008,12,16,08,47,-8.70
2008,12,16,08,48,-8.60
2008,12,16,08,49,-8.60
2008,12,16,08,50,-8.60
2008,12,16,08,51,-8.50
2008,12,16,08,52,-8.50
2008,12,16,08,53,-8.50
2008,12,16,08,54,-8.50
2008,12,16,08,55,-8.50
2008,12,16,08,56,-8.50
2008,12,16,08,57,-8.50
2008,12,16,08,58,-8.40
2008,12,16,08,59,-8.40
2008,12,16,09,00,-8.40
2008,12,16,09,01,-8.40
2008,12,16,09,02,-8.40
2008,12,16,09,03,-8.40
2008,12,16,09,04,-8.40
2008,12,16,09,05,-8.40
2008,12,16,09,06,-8.40
2008,12,16,09,07,-8.40
2008,12,16,09,08,-8.30
2008,12,16,09,09,-8.20
2008,12,16,09,10,-8.10
2008,12,16,09,11,-8.00
2008,12,16,09,12,-7.90
2008,12,16,09,13,-7.80
2008,12,16,09,14,-7.70
2008,12,16,09,15,-7.60
2008,12,16,09,16,-7.40
2008,12,16,09,17,-7.30
2008,12,16,09,18,-7.20
2008,12,16,09,19,-7.10
2008,12,16,09,20,-7.10
2008,12,16,09,21,-7.00
2008,12,16,09,22,-6.80
2008,12,16,09,23,-6.70
2008,12,16,09,24,-6.50
2008,12,16,09,25,-6.40
2008,12,16,09,26,-6.40
2008,12,16,09,27,-6.20
2008,12,16,09,28,-6.10
2008,12,16,09,29,-5.90
2008,12,16,09,30,-5.80
2008,12,16,09,31,-5.60
2008,12,16,09,32,-5.50
2008,12,16,09,33,-5.40
2008,12,16,09,34,-5.30
2008,12,16,09,35,-5.30
2008,12,16,09,36,-5.20
2008,12,16,09,37,-5.10
2008,12,16,09,38,-5.10
2008,12,16,09,39,-5.10
2008,12,16,09,40,-5.10
2008,12,16,09,41,-5.10
2008,12,16,09,42,-5.00
2008,12,16,09,43,-4.90
2008,12,16,09,44,-4.80
2008,12,16,09,45,-4.70
2008,12,16,09,46,-4.70
2008,12,16,09,47,-4.60
2008,12,16,09,48,-4.50
2008,12,16,09,49,-4.40
2008,12,16,09,50,-4.30
2008,12,16,09,51,-4.20
2008,12,16,09,52,-4.20
2008,12,16,09,53,-4.10
2008,12,16,09,54,-4.00
2008,12,16,09,55,-3.90
2008,12,16,09,56,-3.80
2008,12,16,09,57,-3.70
2008,12,16,09,58,-3.70
2008,12,16,09,59,-3.60
2008,12,16,10,00,-3.60
2008,12,16,10,01,-3.50
2008,12,16,10,02,-3.40
2008,12,16,10,03,-3.40
2008,12,16,10,04,-3.30
2008,12,16,10,05,-3.30
2008,12,16,10,06,-3.30
2008,12,16,10,07,-3.20
2008,12,16,10,08,-3.20
2008,12,16,10,09,-3.10
2008,12,16,10,10,-3.10
2008,12,16,10,11,-3.00
2008,12,16,10,12,-2.90
2008,12,16,10,13,-2.80
2008,12,16,10,14,-2.80
2008,12,16,10,15,-2.70
2008,12,16,10,16,-2.60
2008,12,16,10,17,-2.50
2008,12,16,10,18,-2.30
2008,12,16,10,19,-2.20
2008,12,16,10,20,-2.10
2008,12,16,10,21,-2.00
2008,12,16,10,22,-1.90
2008,12,16,10,23,-1.80
2008,12,16,10,24,-1.70
2008,12,16,10,25,-1.70
2008,12,16,10,26,-1.60
2008,12,16,10,27,-1.50
2008,12,16,10,28,-1.50
2008,12,16,10,29,-1.50
2008,12,16,10,30,-1.60
2008,12,16,10,31,-1.60
2008,12,16,10,32,-1.60
2008,12,16,10,33,-1.60
2008,12,16,10,34,-1.60
2008,12,16,10,35,-1.60
2008,12,16,10,36,-1.60
2008,12,16,10,37,-1.50
2008,12,16,10,38,-1.50
2008,12,16,10,39,-1.40
2008,12,16,10,40,-1.40
2008,12,16,10,41,-1.40
2008,12,16,10,42,-1.40
2008,12,16,10,43,-1.40
2008,12,16,10,44,-1.40
2008,12,16,10,45,-1.40
2008,12,16,10,46,-1.40
2008,12,16,10,47,-1.40
2008,12,16,10,48,-1.30
2008,12,16,10,49,-1.20
2008,12,16,10,50,-1.20
2008,12,16,10,51,-1.20
2008,12,16,10,52,-1.10
2008,12,16,10,53,-1.10
2008,12,16,10,54,-1.10
2008,12,16,10,55,-1.10
2008,12,16,10,56,-1.10
2008,12,16,10,57,-0.90
2008,12,16,10,58,-0.90
2008,12,16,10,59,-0.90
2008,12,16,11,00,-0.80
2008,12,16,11,01,-0.70
2008,12,16,11,02,-0.70
2008,12,16,11,03,-0.60
2008,12,16,11,04,-0.50
2008,12,16,11,05,-0.40
2008,12,16,11,06,-0.30
2008,12,16,11,07,-0.20
2008,12,16,11,08,-0.20
2008,12,16,11,09,-0.10
2008,12,16,11,10,-0.10
2008,12,16,11,11,0.00
2008,12,16,11,12,0.10
2008,12,16,11,13,0.10
2008,12,16,11,14,0.10
2008,12,16,11,15,0.10
2008,12,16,11,16,0.10
2008,12,16,11,17,0.10
2008,12,16,11,18,0.10
2008,12,16,11,19,0.10
2008,12,16,11,20,0.10
2008,12,16,11,21,-0.10
2008,12,16,11,22,-0.10
2008,12,16,11,23,-0.10
2008,12,16,11,24,-0.10
2008,12,16,11,25,-0.10
2008,12,16,11,26,-0.10
2008,12,16,11,27,-0.10
2008,12,16,11,28,-0.10
2008,12,16,11,29,-0.10
2008,12,16,11,30,0.10
2008,12,16,11,31,0.10
2008,12,16,11,32,0.10
2008,12,16,11,33,0.20
2008,12,16,11,34,0.30
2008,12,16,11,35,0.40
2008,12,16,11,36,0.40
2008,12,16,11,37,0.50
2008,12,16,11,38,0.60
2008,12,16,11,39,0.70
2008,12,16,11,40,0.80
2008,12,16,11,41,0.90
2008,12,16,11,42,0.90
2008,12,16,11,43,1.00
2008,12,16,11,44,1.00
2008,12,16,11,45,1.00
2008,12,16,11,46,1.00
2008,12,16,11,47,1.00
2008,12,16,11,48,0.90
2008,12,16,11,49,0.80
2008,12,16,11,50,0.70
2008,12,16,11,51,0.60
2008,12,16,11,52,0.60
2008,12,16,11,53,0.60
2008,12,16,11,54,0.60
2008,12,16,11,55,0.60
2008,12,16,11,56,0.60
2008,12,16,11,57,0.70
2008,12,16,11,58,0.80
2008,12,16,11,59,0.80
2008,12,16,12,00,0.80
2008,12,16,12,01,0.80
2008,12,16,12,02,0.90
2008,12,16,12,03,0.90
2008,12,16,12,04,1.00
2008,12,16,12,05,1.00
2008,12,16,12,06,1.00
2008,12,16,12,07,1.10
2008,12,16,12,08,1.10
2008,12,16,12,09,1.10
2008,12,16,12,10,1.10
2008,12,16,12,11,1.10
2008,12,16,12,12,1.00
2008,12,16,12,13,0.90
2008,12,16,12,14,0.90
2008,12,16,12,15,0.80
2008,12,16,12,16,0.80
2008,12,16,12,17,0.70
2008,12,16,12,18,0.70
2008,12,16,12,19,0.70
2008,12,16,12,20,0.70
2008,12,16,12,21,0.70
2008,12,16,12,22,0.80
2008,12,16,12,23,0.90
2008,12,16,12,24,1.00
2008,12,16,12,25,1.10
2008,12,16,12,26,1.10
2008,12,16,12,27,1.10
2008,12,16,12,28,1.10
2008,12,16,12,29,1.10
2008,12,16,12,30,1.20
2008,12,16,12,31,1.20
2008,12,16,12,32,1.20
2008,12,16,12,33,1.20
2008,12,16,12,34,1.20
2008,12,16,12,35,1.20
2008,12,16,12,36,1.20
2008,12,16,12,37,1.20
2008,12,16,12,38,1.30
2008,12,16,12,39,1.30
2008,12,16,12,40,1.30
2008,12,16,12,41,1.30
2008,12,16,12,42,1.30
2008,12,16,12,43,1.30
2008,12,16,12,44,1.30
2008,12,16,12,45,1.40
2008,12,16,12,46,1.40
2008,12,16,12,47,1.40
2008,12,16,12,48,1.40
2008,12,16,12,49,1.40
2008,12,16,12,50,1.30
2008,12,16,12,51,1.30
2008,12,16,12,52,1.30
2008,12,16,12,53,1.20
2008,12,16,12,54,1.20
2008,12,16,12,55,1.20
2008,12,16,12,56,1.30
2008,12,16,12,57,1.30
2008,12,16,12,58,1.30
2008,12,16,12,59,1.40
2008,12,16,13,00,1.40
2008,12,16,13,01,1.40
2008,12,16,13,02,1.30
2008,12,16,13,03,1.30
2008,12,16,13,04,1.40
2008,12,16,13,05,1.40
2008,12,16,13,06,1.40
2008,12,16,13,07,1.30
2008,12,16,13,08,1.30
2008,12,16,13,09,1.30
2008,12,16,13,10,1.20
2008,12,16,13,11,1.20
2008,12,16,13,12,1.10
2008,12,16,13,13,1.10
2008,12,16,13,14,1.10
2008,12,16,13,15,1.10
2008,12,16,13,16,1.10
2008,12,16,13,17,1.00
2008,12,16,13,18,1.00
2008,12,16,13,19,1.00
2008,12,16,13,20,1.00
2008,12,16,13,21,1.10
2008,12,16,13,22,1.10
2008,12,16,13,23,1.10
2008,12,16,13,24,1.10
2008,12,16,13,25,1.10
2008,12,16,13,26,1.10
2008,12,16,13,27,1.20
2008,12,16,13,28,1.20
2008,12,16,13,29,1.20
2008,12,16,13,30,1.20
2008,12,16,13,31,1.20
2008,12,16,13,32,1.20
2008,12,16,13,33,1.20
2008,12,16,13,34,1.20
2008,12,16,13,35,1.10
2008,12,16,13,36,1.10
2008,12,16,13,37,1.10
2008,12,16,13,38,1.10
2008,12,16,13,39,1.20
2008,12,16,13,40,1.20
2008,12,16,13,41,1.20
2008,12,16,13,42,1.30
2008,12,16,13,43,1.30
2008,12,16,13,44,1.30
2008,12,16,13,45,1.30
2008,12,16,13,46,1.30
2008,12,16,13,47,1.30
2008,12,16,13,48,1.30
2008,12,16,13,49,1.20
2008,12,16,13,50,1.20
2008,12,16,13,51,1.20
2008,12,16,13,52,1.20
2008,12,16,13,53,1.10
2008,12,16,13,54,1.10
2008,12,16,13,55,1.10
2008,12,16,13,56,1.00
2008,12,16,13,57,1.00
2008,12,16,13,58,0.90
2008,12,16,13,59,0.90
2008,12,16,14,00,0.90
2008,12,16,14,01,0.90
2008,12,16,14,02,0.90
2008,12,16,14,03,0.80
2008,12,16,14,04,0.80
2008,12,16,14,05,0.80
2008,12,16,14,06,0.80
2008,12,16,14,07,0.80
2008,12,16,14,08,0.80
2008,12,16,14,09,0.80
2008,12,16,14,10,0.80
2008,12,16,14,11,0.80
2008,12,16,14,12,0.80
2008,12,16,14,13,0.80
2008,12,16,14,14,0.80
2008,12,16,14,15,0.80
2008,12,16,14,16,0.90
2008,12,16,14,17,0.90
2008,12,16,14,18,1.00
2008,12,16,14,19,1.00
2008,12,16,14,20,1.00
2008,12,16,14,21,1.00
2008,12,16,14,22,1.00
2008,12,16,14,23,1.00
2008,12,16,14,24,0.90
2008,12,16,14,25,0.90
2008,12,16,14,26,0.90
2008,12,16,14,27,0.80
2008,12,16,14,28,0.80
2008,12,16,14,29,0.80
2008,12,16,14,30,0.80
2008,12,16,14,31,0.80
2008,12,16,14,32,0.90
2008,12,16,14,33,0.90
2008,12,16,14,34,0.90
2008,12,16,14,35,0.90
2008,12,16,14,36,0.90
2008,12,16,14,37,0.90
2008,12,16,14,38,0.90
2008,12,16,14,39,0.90
2008,12,16,14,40,0.90
2008,12,16,14,41,0.90
2008,12,16,14,42,0.90
2008,12,16,14,43,0.90
2008,12,16,14,44,0.90
2008,12,16,14,45,0.90
2008,12,16,14,46,0.90
2008,12,16,14,47,0.90
2008,12,16,14,48,0.90
2008,12,16,14,49,1.00
2008,12,16,14,50,1.00
2008,12,16,14,51,1.00
2008,12,16,14,52,1.10
2008,12,16,14,53,1.10
2008,12,16,14,54,1.20
2008,12,16,14,55,1.20
2008,12,16,14,56,1.20
2008,12,16,14,57,1.20
2008,12,16,14,58,1.20
2008,12,16,14,59,1.20
2008,12,16,15,00,1.20
2008,12,16,15,01,1.20
2008,12,16,15,02,1.20
2008,12,16,15,03,1.10
2008,12,16,15,04,1.10
2008,12,16,15,05,1.10
2008,12,16,15,06,1.10
2008,12,16,15,07,1.10
2008,12,16,15,08,1.00
2008,12,16,15,09,1.00
2008,12,16,15,10,1.00
2008,12,16,15,11,1.00
2008,12,16,15,12,1.00
2008,12,16,15,13,1.00
2008,12,16,15,14,1.00
2008,12,16,15,15,1.00
2008,12,16,15,16,1.00
2008,12,16,15,17,0.90
2008,12,16,15,18,0.90
2008,12,16,15,19,0.80
2008,12,16,15,20,0.80
2008,12,16,15,21,0.80
2008,12,16,15,22,0.80
2008,12,16,15,23,0.80
2008,12,16,15,24,0.80
2008,12,16,15,25,0.80
2008,12,16,15,26,0.80
2008,12,16,15,27,0.80
2008,12,16,15,28,0.80
2008,12,16,15,29,0.80
2008,12,16,15,30,0.80
2008,12,16,15,31,0.80
2008,12,16,15,32,0.70
2008,12,16,15,33,0.70
2008,12,16,15,34,0.60
2008,12,16,15,35,0.60
2008,12,16,15,36,0.60
2008,12,16,15,37,0.60
2008,12,16,15,38,0.60
2008,12,16,15,39,0.50
2008,12,16,15,40,0.50
2008,12,16,15,41,0.50
2008,12,16,15,42,0.50
2008,12,16,15,43,0.50
2008,12,16,15,44,0.50
2008,12,16,15,45,0.50
2008,12,16,15,46,0.50
2008,12,16,15,47,0.50
2008,12,16,15,48,0.50
2008,12,16,15,49,0.50
2008,12,16,15,50,0.50
2008,12,16,15,51,0.50
2008,12,16,15,52,0.50
2008,12,16,15,53,0.50
2008,12,16,15,54,0.50
2008,12,16,15,55,0.40
2008,12,16,15,56,0.40
2008,12,16,15,57,0.40
2008,12,16,15,58,0.40
2008,12,16,15,59,0.40
2008,12,16,16,00,0.40
2008,12,16,16,01,0.40
2008,12,16,16,02,0.40
2008,12,16,16,03,0.30
2008,12,16,16,04,0.30
2008,12,16,16,05,0.30
2008,12,16,16,06,0.30
2008,12,16,16,07,0.30
2008,12,16,16,08,0.30
2008,12,16,16,09,0.30
2008,12,16,16,10,0.20
2008,12,16,16,11,0.20
2008,12,16,16,12,0.20
2008,12,16,16,13,0.20
2008,12,16,16,14,0.20
2008,12,16,16,15,0.20
2008,12,16,16,16,0.20
2008,12,16,16,17,0.10
2008,12,16,16,18,0.10
2008,12,16,16,19,0.10
2008,12,16,16,20,0.10
2008,12,16,16,21,0.10
2008,12,16,16,22,0.10
2008,12,16,16,23,0.10
2008,12,16,16,24,0.10
2008,12,16,16,25,0.10
2008,12,16,16,26,0.10
2008,12,16,16,27,0.10
2008,12,16,16,28,0.10
2008,12,16,16,29,0.10
2008,12,16,16,30,0.10
2008,12,16,16,31,0.10
2008,12,16,16,32,0.10
2008,12,16,16,33,0.10
2008,12,16,16,34,0.10
2008,12,16,16,35,0.00
2008,12,16,16,36,-0.10
2008,12,16,16,37,-0.10
2008,12,16,16,38,-0.10
2008,12,16,16,39,-0.10
2008,12,16,16,40,-0.10
2008,12,16,16,41,-0.10
2008,12,16,16,42,-0.10
2008,12,16,16,43,-0.10
2008,12,16,16,44,-0.10
2008,12,16,16,45,-0.10
2008,12,16,16,46,-0.10
2008,12,16,16,47,-0.10
2008,12,16,16,48,-0.10
2008,12,16,16,49,-0.10
2008,12,16,16,50,-0.10
2008,12,16,16,51,-0.10
2008,12,16,16,52,-0.10
2008,12,16,16,53,-0.10
2008,12,16,16,54,-0.10
2008,12,16,16,55,-0.10
2008,12,16,16,56,0.00
2008,12,16,16,57,0.10
2008,12,16,16,58,0.10
2008,12,16,16,59,0.10
2008,12,16,17,00,0.10
2008,12,16,17,01,0.10
2008,12,16,17,02,0.10
2008,12,16,17,03,0.10
2008,12,16,17,04,0.10
2008,12,16,17,05,0.20
2008,12,16,17,06,0.20
2008,12,16,17,07,0.20
2008,12,16,17,08,0.30
2008,12,16,17,09,0.30
2008,12,16,17,10,0.30
2008,12,16,17,11,0.40
2008,12,16,17,12,0.40
2008,12,16,17,13,0.40
2008,12,16,17,14,0.40
2008,12,16,17,15,0.40
2008,12,16,17,16,0.50
2008,12,16,17,17,0.50
2008,12,16,17,18,0.60
2008,12,16,17,19,0.60
2008,12,16,17,20,0.70
2008,12,16,17,21,0.70
2008,12,16,17,22,0.70
2008,12,16,17,23,0.70
2008,12,16,17,24,0.80
2008,12,16,17,25,0.80
2008,12,16,17,26,0.80
2008,12,16,17,27,0.80
2008,12,16,17,28,0.80
2008,12,16,17,29,0.80
2008,12,16,17,30,0.80
2008,12,16,17,31,0.80
2008,12,16,17,32,0.80
2008,12,16,17,33,0.80
2008,12,16,17,34,0.80